Location: ?????????
(38.5999°N, 22.7695°E)
Time: 11:54:01
(UTC+00:00)

Cosmos 1503 Rocket - Pass Details

Date: 23 May 2024
Orbit: 751 x 788 km, 74.0° (Epoch: 18 June)

Event Time Altitude Azimuth Distance (km) Brightness Sun altitude
Exits shadow 02:23:13 - 198° (SSW) 2,823 6.4 -8.8°
Reaches altitude 10° 02:24:28 10° 199° (SSW) 2,337 6.0 -8.6°
Maximum altitude 02:29:48 85° 288° (WNW) 796 4.1 -7.7°
Drops below altitude 10° 02:35:11 10° 17° (NNE) 2,356 7.4 -6.8°
Sets 02:37:35 0° 18° (NNE) 3,287 8.2 -6.4°
